FENGYUN 1C DEB, 35203

Orbit data source: Space-Track

FENGYUN 1C DEB, 35203 is space debris in SSO originally from a launch on Mon, 10 May 1999 UTC launched from the Taiyaun Space Center, China (TSC). Fengyun 1C debris stems from the Chinese weather satellite Fengyun-1C, which was intentionally destroyed by a Chinese anti-satellite missile in 2007. This event dramatically increased the amount of space debris, with thousands of trackable fragments posing hazards to satellites and human spaceflight. The Fengyun 1C debris cloud has become a focal point in discussions about space sustainability and the need for international regulations to prevent the creation of new debris.

Loading next visibility...
Identifier
35203, 1999-025DPK
Orbit
SSO
Country
Flag of CNCN / PRC
Related business
Manufacturer
Unknown
Mission
Spacecraft
Bus & Motor
Unknown
Mass
Unknown
Launch date (UTC)
1999-05-10 (27 years ago)
Launch vehicle
Unknown
Launch site
Taiyaun Space Center, China (TSC)
Object type
Payload
Rocket body
Debris
Shape & HBR
Unknown shape, 0.1 m
Radar Cross Section
Small (<0.1 m²)

Expand to show TLE details & history
Last TLE update: 19 hours ago

TLE from 19 hours ago
0 FENGYUN 1C DEB
1 35203U 99025DPK 26254.78040616  .00001104  00000-0  12618-2 0  9995
2 35203 102.0836 272.6001 0514097 283.2462  71.1817 13.27357038632720
Epoch: 2026-09-11T18:43Z
TLE epoch observation values (Epoch: 2026-09-11T18:43:47.092Z)
Latitude
0.00002°
Longitude
0.85503°
Altitude
1,052.72 km
Speed
7.377 km/s
True Right ascension
18h 10m 24s
True Declination
0° 00' 00"
Sunlit
Object was in daylight at epoch
Visualization orbit readout
Latitude
Unknown
Longitude
Unknown
Altitude
Unknown
Speed
Unknown
Apparent Right ascension
Unknown
Apparent Declination
Unknown
Sunlit
N/A
Visualization observer readout
Local Sidereal Time
06:28:05
Azimuth
Unknown
Elevation
Unknown
Doppler factor
Unknown
Orbital elements
Apogee altitude
1,541.441 km
Perigee altitude
766.97 km
Semi-major axis
7,532.343 km
Eccentricity
0.05141
Inclination
102.0836°
RAAN
272.6001°
Arg. of periapsis
283.2462°
True anomaly
76.86648°
Mean anomaly
71.1817°
Eccentric anomaly
74.01334°
Mean motion
3.32008 °/min
Orbital period
108.43 mins
BSTAR
0.0012618
Loading maneuver chart data...
Computing Atmospheric mass density...

Documentation

Showing up to 5 results
|